Location: Newark
(27.9675°N, 86.8869°E)
Time: 01:29:28
(UTC+00:00)

Vanguard 3 - Pass Details

Date: 24 October 2019
Orbit: 508 x 3263 km, 33.4° (Epoch: 20 November)

Event Time Altitude Azimuth Distance (km) Brightness Sun altitude
Rises 20:53:58 0° 289° (WNW) 2,629 - -45.6°
Reaches altitude 10° 20:55:54 10° 288° (WNW) 1,815 - -45.2°
Maximum altitude 20:59:50 79° 202° (SSW) 677 - -44.4°
Exits shadow 21:04:39 15° 116° (ESE) 2,240 9.8 -43.3°
Drops below altitude 10° 21:05:42 10° 115° (ESE) 2,665 10.2 -43.1°
Sets 21:09:05 0° 115° (ESE) 4,014 11.3 -42.4°
